| time (UTC) | temp F | wind direction | speed MPH | gust MPH | rain 1hr in | rain 24hr in | rain mn in | humidity % | barometer mb |
| 20260901172117 | 64 | 289 | 3.0 | 4.0 | 0.00 | 0.00 | 0.00 | 72 | 1017.7 |
| 20260901171617 | 65 | 310 | 3.0 | 6.0 | 0.00 | 0.00 | 0.00 | 72 | 1017.8 |
| 20260901171117 | 65 | 315 | 2.0 | 7.0 | 0.00 | 0.00 | 0.00 | 72 | 1017.8 |
| 20260901170618 | 65 | 23 | 3.0 | 9.0 | 0.00 | 0.00 | 0.00 | 71 | 1017.8 |
| 20260901170411 | 66 | 359 | 4.0 | 10.0 | 0.00 | 0.00 | 0.00 | 70 | 1017.9 |
| 20260901165906 | 67 | 303 | 4.0 | 13.0 | 0.00 | 0.00 | 0.00 | 70 | 1017.9 |
| 20260901165117 | 68 | 335 | 7.0 | 18.0 | 0.00 | 0.00 | 0.00 | 71 | 1018.0 |
| 20260901164616 | 69 | 324 | 9.0 | 18.0 | 0.00 | 0.00 | 0.00 | 70 | 1018.0 |
| 20260901164119 | 70 | 304 | 10.0 | 15.0 | 0.00 | 0.00 | 0.00 | 67 | 1018.0 |
| 20260901163616 | 70 | 265 | 4.0 | 11.0 | 0.00 | 0.00 | 0.00 | 67 | 1017.5 |
| 20260901163117 | 70 | 228 | 6.0 | 14.0 | 0.00 | 0.00 | 0.00 | 67 | 1017.5 |
| 20260901162603 | 71 | 259 | 8.0 | 14.0 | 0.00 | 0.00 | 0.00 | 67 | 1017.4 |
| 20260901162103 | 71 | 259 | 8.0 | 13.0 | 0.00 | 0.00 | 0.00 | 67 | 1017.4 |
| 20260901161604 | 70 | 222 | 5.0 | 10.0 | 0.00 | 0.00 | 0.00 | 67 | 1017.2 |
| 20260901161104 | 70 | 293 | 6.0 | 12.0 | 0.00 | 0.00 | 0.00 | 67 | 1017.2 |
| 20260901160604 | 70 | 292 | 8.0 | 12.0 | 0.00 | 0.00 | 0.00 | 67 | 1017.1 |
| 20260901160106 | 70 | 256 | 6.0 | 10.0 | 0.00 | 0.00 | 0.00 | 67 | 1017.1 |
| 20260901155605 | 70 | 231 | 5.0 | 12.0 | 0.00 | 0.00 | 0.00 | 67 | 1017.0 |
| 20260901155105 | 71 | 229 | 8.0 | 12.0 | 0.00 | 0.00 | 0.00 | 67 | 1017.1 |
| 20260901154603 | 71 | 273 | 6.0 | 12.0 | 0.00 | 0.00 | 0.00 | 66 | 1017.1 |
| 20260901154103 | 71 | 210 | 5.0 | 12.0 | 0.00 | 0.00 | 0.00 | 67 | 1017.0 |
| 20260901153605 | 71 | 245 | 4.0 | 12.0 | 0.00 | 0.00 | 0.00 | 66 | 1016.9 |
| 20260901153104 | 71 | 253 | 6.0 | 12.0 | 0.00 | 0.00 | 0.00 | 65 | 1017.1 |
| 20260901152603 | 71 | 275 | 7.0 | 13.0 | 0.00 | 0.00 | 0.00 | 65 | 1017.0 |
| 20260901152145 | 71 | 206 | 9.0 | 13.0 | 0.00 | 0.00 | 0.00 | 66 | 1017.1 |
| 20260901152131 | 71 | 232 | 6.0 | 13.0 | 0.00 | 0.00 | 0.00 | 65 | 1017.1 |
| 20260901151105 | 71 | 259 | 7.0 | 14.0 | 0.00 | 0.00 | 0.00 | 66 | 1017.1 |
| 20260901150603 | 71 | 229 | 6.0 | 14.0 | 0.00 | 0.00 | 0.00 | 65 | 1017.2 |
| 20260901150106 | 71 | 229 | 5.0 | 13.0 | 0.00 | 0.00 | 0.00 | 66 | 1017.1 |
| 20260901145605 | 71 | 231 | 6.0 | 15.0 | 0.00 | 0.00 | 0.00 | 66 | 1017.1 |
| 20260901145105 | 71 | 239 | 9.0 | 15.0 | 0.00 | 0.00 | 0.00 | 65 | 1017.1 |
| 20260901144605 | 71 | 224 | 3.0 | 14.0 | 0.00 | 0.00 | 0.00 | 65 | 1017.2 |
| 20260901144103 | 71 | 235 | 6.0 | 15.0 | 0.00 | 0.00 | 0.00 | 65 | 1017.2 |
| 20260901143655 | 71 | 269 | 8.0 | 15.0 | 0.00 | 0.00 | 0.00 | 65 | 1017.4 |
| 20260901143639 | 71 | 268 | 10.0 | 15.0 | 0.00 | 0.00 | 0.00 | 64 | 1017.2 |
| 20260901142604 | 71 | 218 | 8.0 | 15.0 | 0.00 | 0.00 | 0.00 | 65 | 1017.2 |
| 20260901142102 | 71 | 241 | 8.0 | 19.0 | 0.00 | 0.00 | 0.00 | 64 | 1017.4 |
| 20260901141604 | 71 | 244 | 11.0 | 19.0 | 0.00 | 0.00 | 0.00 | 64 | 1017.4 |
| 20260901141104 | 71 | 253 | 10.0 | 17.0 | 0.00 | 0.00 | 0.00 | 65 | 1017.5 |
| 20260901140603 | 71 | 253 | 7.0 | 13.0 | 0.00 | 0.00 | 0.00 | 65 | 1017.4 |
| 20260901140104 | 71 | 245 | 8.0 | 13.0 | 0.00 | 0.00 | 0.00 | 65 | 1017.5 |
| 20260901135603 | 71 | 277 | 7.0 | 12.0 | 0.00 | 0.00 | 0.00 | 65 | 1017.4 |
| 20260901135103 | 72 | 238 | 4.0 | 14.0 | 0.00 | 0.00 | 0.00 | 65 | 1017.4 |
| 20260901134607 | 72 | 277 | 10.0 | 17.0 | 0.00 | 0.00 | 0.00 | 64 | 1017.5 |
| 20260901134102 | 72 | 252 | 13.0 | 18.0 | 0.00 | 0.00 | 0.00 | 63 | 1017.5 |
| 20260901133603 | 72 | 217 | 8.0 | 18.0 | 0.00 | 0.00 | 0.00 | 63 | 1017.5 |
| 20260901133102 | 72 | 280 | 9.0 | 13.0 | 0.00 | 0.00 | 0.00 | 64 | 1017.5 |
| 20260901132603 | 72 | 262 | 8.0 | 15.0 | 0.00 | 0.00 | 0.00 | 66 | 1017.5 |
| 20260901132347 | 71 | 263 | 10.0 | 15.0 | 0.00 | 0.00 | 0.00 | 68 | 1017.6 |
| 20260901131605 | 70 | 270 | 9.0 | 12.0 | 0.00 | 0.00 | 0.00 | 67 | 1017.7 |
| 20260901131105 | 69 | 290 | 3.0 | 12.0 | 0.00 | 0.00 | 0.00 | 67 | 1017.8 |
| 20260901130842 | 69 | 256 | 7.0 | 13.0 | 0.00 | 0.00 | 0.00 | 67 | 1017.7 |
| 20260901130105 | 70 | 283 | 9.0 | 13.0 | 0.00 | 0.00 | 0.00 | 66 | 1017.7 |
| 20260901125605 | 70 | 246 | 6.0 | 13.0 | 0.00 | 0.00 | 0.00 | 65 | 1017.7 |
| 20260901125104 | 71 | 251 | 6.0 | 15.0 | 0.00 | 0.00 | 0.00 | 65 | 1017.6 |
| 20260901124845 | 71 | 265 | 8.0 | 17.0 | 0.00 | 0.00 | 0.00 | 63 | 1017.8 |
| 20260901124104 | 72 | 280 | 8.0 | 17.0 | 0.00 | 0.00 | 0.00 | 62 | 1017.7 |
| 20260901123604 | 73 | 228 | 10.0 | 16.0 | 0.00 | 0.00 | 0.00 | 64 | 1017.6 |
| 20260901123351 | 73 | 266 | 8.0 | 17.0 | 0.00 | 0.00 | 0.00 | 65 | 1017.7 |
| 20260901122605 | 72 | 231 | 5.0 | 17.0 | 0.00 | 0.00 | 0.00 | 64 | 1017.6 |
| 20260901122107 | 73 | 287 | 9.0 | 14.0 | 0.00 | 0.00 | 0.00 | 64 | 1017.6 |
| 20260901121604 | 72 | 265 | 9.0 | 14.0 | 0.00 | 0.00 | 0.00 | 66 | 1017.8 |
| 20260901121104 | 72 | 227 | 8.0 | 15.0 | 0.00 | 0.00 | 0.00 | 65 | 1017.8 |
| 20260901120604 | 72 | 282 | 9.0 | 17.0 | 0.00 | 0.00 | 0.00 | 65 | 1017.8 |
| 20260901120407 | 71 | 246 | 10.0 | 17.0 | 0.00 | 0.00 | 0.00 | 65 | 1017.8 |
| 20260901115851 | 71 | 214 | 8.0 | 16.0 | 0.00 | 0.00 | 0.00 | 65 | 1017.8 |
| 20260901115104 | 71 | 262 | 10.0 | 15.0 | 0.00 | 0.00 | 0.00 | 65 | 1017.7 |
| 20260901114605 | 71 | 268 | 8.0 | 15.0 | 0.00 | 0.00 | 0.00 | 65 | 1017.8 |
| 20260901114058 | 72 | 294 | 9.0 | 15.0 | 0.00 | 0.00 | 0.00 | 66 | 1017.8 |
| 20260901113552 | 71 | 232 | 8.0 | 17.0 | 0.00 | 0.00 | 0.00 | 66 | 1017.8 |
| 20260901113045 | 71 | 249 | 8.0 | 20.0 | 0.00 | 0.00 | 0.00 | 65 | 1017.7 |
| 20260901112538 | 70 | 301 | 10.0 | 20.0 | 0.00 | 0.00 | 0.00 | 64 | 1017.7 |
| 20260901112336 | 71 | 245 | 11.0 | 19.0 | 0.00 | 0.00 | 0.00 | 65 | 1017.7 |
| 20260901111535 | 71 | 246 | 11.0 | 18.0 | 0.00 | 0.00 | 0.00 | 65 | 1017.7 |
| 20260901111035 | 71 | 214 | 10.0 | 14.0 | 0.00 | 0.00 | 0.00 | 65 | 1017.7 |
| 20260901110533 | 70 | 290 | 4.0 | 18.0 | 0.00 | 0.00 | 0.00 | 67 | 1017.7 |
| 20260901110034 | 70 | 272 | 10.0 | 21.0 | 0.00 | 0.00 | 0.00 | 66 | 1017.7 |
| 20260901105533 | 70 | 269 | 13.0 | 21.0 | 0.00 | 0.00 | 0.00 | 66 | 1017.7 |
| 20260901105032 | 69 | 220 | 10.0 | 17.0 | 0.00 | 0.00 | 0.00 | 66 | 1017.6 |
| 20260901104533 | 69 | 238 | 11.0 | 17.0 | 0.00 | 0.00 | 0.00 | 66 | 1017.5 |
| 20260901104033 | 69 | 290 | 9.0 | 16.0 | 0.00 | 0.00 | 0.00 | 68 | 1017.5 |
| 20260901103532 | 68 | 337 | 10.0 | 17.0 | 0.00 | 0.00 | 0.00 | 68 | 1017.6 |
| 20260901103027 | 69 | 237 | 11.0 | 17.0 | 0.00 | 0.00 | 0.00 | 67 | 1017.5 |
| 20260901102522 | 69 | 251 | 9.0 | 15.0 | 0.00 | 0.00 | 0.00 | 67 | 1017.6 |
| 20260901102022 | 69 | 284 | 7.0 | 18.0 | 0.00 | 0.00 | 0.00 | 68 | 1017.5 |
| 20260901101523 | 69 | 310 | 9.0 | 18.0 | 0.00 | 0.00 | 0.00 | 63 | 1017.5 |
| 20260901101018 | 68 | 263 | 9.0 | 17.0 | 0.00 | 0.00 | 0.00 | 65 | 1017.2 |
| 20260901100518 | 68 | 248 | 9.0 | 19.0 | 0.00 | 0.00 | 0.00 | 64 | 1017.2 |
| 20260901100255 | 68 | 242 | 10.0 | 20.0 | 0.00 | 0.00 | 0.00 | 66 | 1017.4 |
| 20260901095510 | 68 | 263 | 12.0 | 20.0 | 0.00 | 0.00 | 0.00 | 66 | 1017.4 |
| 20260901095008 | 68 | 276 | 15.0 | 18.0 | 0.00 | 0.00 | 0.00 | 68 | 1017.2 |
| 20260901094508 | 67 | 344 | 9.0 | 17.0 | 0.00 | 0.00 | 0.00 | 68 | 1017.4 |
| 20260901094009 | 67 | 253 | 8.0 | 17.0 | 0.00 | 0.00 | 0.00 | 68 | 1017.4 |
| 20260901093509 | 66 | 255 | 6.0 | 17.0 | 0.00 | 0.00 | 0.00 | 70 | 1017.4 |
| 20260901093245 | 66 | 204 | 11.0 | 19.0 | 0.00 | 0.00 | 0.00 | 70 | 1017.5 |
| 20260901092509 | 66 | 282 | 11.0 | 23.0 | 0.00 | 0.00 | 0.00 | 70 | 1017.5 |
| 20260901092007 | 66 | 251 | 12.0 | 23.0 | 0.00 | 0.00 | 0.00 | 70 | 1017.2 |
| 20260901091509 | 66 | 266 | 10.0 | 20.0 | 0.00 | 0.00 | 0.00 | 72 | 1017.2 |
| 20260901091007 | 65 | 238 | 7.0 | 14.0 | 0.00 | 0.00 | 0.00 | 71 | 1017.2 |
| 20260901090510 | 65 | 251 | 9.0 | 16.0 | 0.00 | 0.00 | 0.00 | 71 | 1017.2 |
| 20260901090007 | 65 | 266 | 11.0 | 16.0 | 0.00 | 0.00 | 0.00 | 71 | 1017.1 |
| 20260901085509 | 65 | 273 | 9.0 | 19.0 | 0.00 | 0.00 | 0.00 | 72 | 1017.0 |
| 20260901085007 | 65 | 255 | 11.0 | 19.0 | 0.00 | 0.00 | 0.00 | 72 | 1017.0 |
| 20260901084509 | 65 | 251 | 8.0 | 21.0 | 0.00 | 0.00 | 0.00 | 72 | 1016.9 |
| 20260901084006 | 65 | 284 | 13.0 | 21.0 | 0.00 | 0.00 | 0.00 | 72 | 1016.9 |
| 20260901083508 | 65 | 252 | 10.0 | 17.0 | 0.00 | 0.00 | 0.00 | 72 | 1016.9 |
| 20260901083249 | 65 | 280 | 8.0 | 17.0 | 0.00 | 0.00 | 0.00 | 74 | 1016.8 |
| 20260901082511 | 64 | 272 | 8.0 | 19.0 | 0.00 | 0.00 | 0.00 | 74 | 1016.8 |
| 20260901082007 | 64 | 262 | 9.0 | 19.0 | 0.00 | 0.00 | 0.00 | 74 | 1016.8 |
| 20260901081510 | 64 | 248 | 8.0 | 18.0 | 0.00 | 0.00 | 0.00 | 74 | 1016.8 |
| 20260901081007 | 64 | 282 | 15.0 | 19.0 | 0.00 | 0.00 | 0.00 | 74 | 1016.7 |
| 20260901080510 | 64 | 238 | 13.0 | 19.0 | 0.00 | 0.00 | 0.00 | 74 | 1016.8 |
| 20260901080006 | 64 | 232 | 9.0 | 18.0 | 0.00 | 0.00 | 0.00 | 75 | 1016.8 |
| 20260901075755 | 64 | 249 | 9.0 | 16.0 | 0.00 | 0.00 | 0.00 | 75 | 1016.7 |
| 20260901075004 | 64 | 284 | 8.0 | 16.0 | 0.00 | 0.00 | 0.00 | 75 | 1016.8 |
| 20260901074756 | 64 | 238 | 11.0 | 14.0 | 0.00 | 0.00 | 0.00 | 75 | 1016.7 |
| 20260901074004 | 64 | 262 | 8.0 | 18.0 | 0.00 | 0.00 | 0.00 | 75 | 1016.7 |
| 20260901073753 | 64 | 304 | 11.0 | 18.0 | 0.00 | 0.00 | 0.00 | 75 | 1016.6 |
| 20260901073005 | 63 | 284 | 10.0 | 16.0 | 0.00 | 0.00 | 0.00 | 75 | 1016.5 |
| 20260901072506 | 64 | 318 | 11.0 | 17.0 | 0.00 | 0.00 | 0.00 | 75 | 1016.5 |
| 20260901072007 | 64 | 255 | 9.0 | 17.0 | 0.00 | 0.00 | 0.00 | 75 | 1016.4 |
| 20260901071508 | 64 | 263 | 9.0 | 17.0 | 0.00 | 0.00 | 0.00 | 76 | 1016.4 |
| 20260901071007 | 63 | 248 | 6.0 | 17.0 | 0.00 | 0.00 | 0.00 | 76 | 1016.3 |
| 20260901070506 | 63 | 258 | 8.0 | 14.0 | 0.00 | 0.00 | 0.00 | 76 | 1016.2 |
| 20260901070004 | 62 | 263 | 8.0 | 14.0 | 0.00 | 0.00 | 0.00 | 76 | 1016.2 |
| 20260901065503 | 62 | 231 | 8.0 | 13.0 | 0.00 | 0.00 | 0.00 | 77 | 1016.2 |
| 20260901065004 | 62 | 266 | 7.0 | 14.0 | 0.00 | 0.00 | 0.00 | 77 | 1016.1 |
| 20260901064745 | 62 | 248 | 8.0 | 14.0 | 0.00 | 0.00 | 0.00 | 78 | 1016.0 |
| 20260901064005 | 62 | 224 | 9.0 | 17.0 | 0.00 | 0.00 | 0.00 | 78 | 1016.0 |
| 20260901063750 | 61 | 289 | 9.0 | 23.0 | 0.00 | 0.00 | 0.00 | 77 | 1016.0 |
| 20260901063257 | 61 | 244 | 8.0 | 23.0 | 0.00 | 0.00 | 0.00 | 78 | 1015.8 |
| 20260901062742 | 61 | 208 | 9.0 | 15.0 | 0.00 | 0.00 | 0.00 | 78 | 1015.8 |
| 20260901062003 | 61 | 234 | 8.0 | 22.0 | 0.00 | 0.00 | 0.00 | 78 | 1015.8 |
| 20260901061440 | 61 | 255 | 11.0 | 22.0 | 0.00 | 0.00 | 0.00 | 78 | 1015.9 |
| 20260901060933 | 61 | 246 | 6.0 | 16.0 | 0.00 | 0.00 | 0.00 | 78 | 1015.8 |
| 20260901060433 | 61 | 222 | 5.0 | 18.0 | 0.00 | 0.00 | 0.00 | 78 | 1015.8 |
| 20260901060211 | 61 | 248 | 11.0 | 18.0 | 0.00 | 0.00 | 0.00 | 78 | 1015.7 |
| 20260901055432 | 61 | 320 | 6.0 | 17.0 | 0.00 | 0.00 | 0.00 | 78 | 1015.7 |
| 20260901054904 | 61 | 244 | 9.0 | 18.0 | 0.00 | 0.00 | 0.00 | 78 | 1015.5 |
| 20260901054653 | 60 | 280 | 13.0 | 18.0 | 0.00 | 0.00 | 0.00 | 78 | 1015.5 |
| 20260901053903 | 60 | 206 | 10.0 | 17.0 | 0.00 | 0.00 | 0.00 | 79 | 1015.4 |
| 20260901053405 | 60 | 246 | 10.0 | 16.0 | 0.00 | 0.00 | 0.00 | 79 | 1015.4 |
| 20260901052905 | 60 | 259 | 7.0 | 15.0 | 0.00 | 0.00 | 0.00 | 79 | 1015.4 |
| 20260901052403 | 60 | 246 | 9.0 | 14.0 | 0.00 | 0.00 | 0.00 | 80 | 1015.2 |
| 20260901051903 | 60 | 283 | 7.0 | 13.0 | 0.00 | 0.00 | 0.00 | 80 | 1015.1 |
| 20260901051404 | 60 | 244 | 6.0 | 13.0 | 0.00 | 0.00 | 0.00 | 80 | 1015.1 |
| 20260901050903 | 60 | 225 | 8.0 | 14.0 | 0.00 | 0.00 | 0.00 | 80 | 1015.0 |
| 20260901050404 | 60 | 259 | 8.0 | 15.0 | 0.00 | 0.00 | 0.00 | 80 | 1015.0 |
| 20260901045904 | 59 | 234 | 6.0 | 15.0 | 0.00 | 0.00 | 0.00 | 80 | 1014.9 |
| 20260901045406 | 59 | 235 | 7.0 | 15.0 | 0.00 | 0.00 | 0.00 | 81 | 1014.9 |
| 20260901045150 | 59 | 266 | 9.0 | 13.0 | 0.00 | 0.00 | 0.00 | 81 | 1014.8 |
| 20260901044403 | 59 | 203 | 6.0 | 13.0 | 0.00 | 0.00 | 0.00 | 81 | 1014.8 |
| 20260901043902 | 58 | 228 | 9.0 | 13.0 | 0.00 | 0.00 | 0.00 | 81 | 1014.9 |
| 20260901043403 | 58 | 272 | 8.0 | 12.0 | 0.00 | 0.00 | 0.00 | 81 | 1014.8 |
| 20260901042902 | 58 | 232 | 7.0 | 14.0 | 0.00 | 0.00 | 0.00 | 81 | 1014.7 |
| 20260901042649 | 58 | 245 | 6.0 | 16.0 | 0.00 | 0.00 | 0.00 | 81 | 1014.7 |
| 20260901041901 | 58 | 235 | 7.0 | 16.0 | 0.00 | 0.00 | 0.00 | 81 | 1014.7 |
| 20260901041403 | 58 | 259 | 8.0 | 14.0 | 0.00 | 0.00 | 0.00 | 81 | 1014.6 |
| 20260901041149 | 58 | 242 | 7.0 | 12.0 | 0.00 | 0.00 | 0.00 | 82 | 1014.6 |
| 20260901040403 | 58 | 245 | 6.0 | 14.0 | 0.00 | 0.00 | 0.00 | 82 | 1014.6 |
| 20260901035903 | 58 | 232 | 7.0 | 14.0 | 0.00 | 0.00 | 0.00 | 82 | 1014.6 |
| 20260901035651 | 58 | 237 | 8.0 | 12.0 | 0.00 | 0.00 | 0.00 | 82 | 1014.6 |
| 20260901034901 | 58 | 241 | 5.0 | 13.0 | 0.00 | 0.00 | 0.00 | 82 | 1014.5 |
| 20260901034402 | 58 | 238 | 9.0 | 13.0 | 0.00 | 0.00 | 0.00 | 82 | 1014.4 |
| 20260901033900 | 58 | 260 | 7.0 | 11.0 | 0.00 | 0.00 | 0.00 | 82 | 1014.5 |
| 20260901033401 | 58 | 238 | 7.0 | 11.0 | 0.00 | 0.00 | 0.00 | 82 | 1014.4 |
| 20260901032900 | 58 | 221 | 7.0 | 12.0 | 0.00 | 0.00 | 0.00 | 82 | 1014.4 |
| 20260901032402 | 58 | 266 | 8.0 | 12.0 | 0.00 | 0.00 | 0.00 | 81 | 1014.4 |
| 20260901032146 | 58 | 252 | 5.0 | 10.0 | 0.00 | 0.00 | 0.00 | 81 | 1014.5 |
| 20260901031653 | 58 | 239 | 6.0 | 14.0 | 0.00 | 0.00 | 0.00 | 81 | 1014.3 |
| 20260901030900 | 58 | 231 | 11.0 | 14.0 | 0.00 | 0.00 | 0.00 | 81 | 1014.3 |
| 20260901030401 | 58 | 245 | 6.0 | 9.0 | 0.00 | 0.00 | 0.00 | 80 | 1014.4 |
| 20260901025859 | 58 | 238 | 6.0 | 10.0 | 0.00 | 0.00 | 0.00 | 80 | 1014.4 |
| 20260901025401 | 58 | 242 | 5.0 | 10.0 | 0.00 | 0.00 | 0.00 | 80 | 1014.3 |
| 20260901025142 | 58 | 229 | 6.0 | 10.0 | 0.00 | 0.00 | 0.00 | 80 | 1014.3 |
| 20260901024402 | 58 | 239 | 6.0 | 12.0 | 0.00 | 0.00 | 0.00 | 80 | 1014.3 |
| 20260901023901 | 58 | 234 | 6.0 | 12.0 | 0.00 | 0.00 | 0.00 | 80 | 1014.4 |
| 20260901023402 | 58 | 225 | 6.0 | 12.0 | 0.00 | 0.00 | 0.00 | 80 | 1014.3 |
| 20260901022900 | 58 | 258 | 7.0 | 12.0 | 0.00 | 0.00 | 0.00 | 80 | 1014.4 |
| 20260901022400 | 59 | 242 | 6.0 | 10.0 | 0.00 | 0.00 | 0.00 | 80 | 1014.4 |
| 20260901021900 | 59 | 213 | 5.0 | 10.0 | 0.00 | 0.00 | 0.00 | 80 | 1014.3 |
| 20260901021442 | 59 | 234 | 7.0 | 11.0 | 0.00 | 0.00 | 0.00 | 79 | 1014.3 |
| 20260901021428 | 59 | 235 | 6.0 | 11.0 | 0.00 | 0.00 | 0.00 | 79 | 1014.4 |
| 20260901020446 | 60 | 238 | 6.0 | 11.0 | 0.00 | 0.00 | 0.00 | 79 | 1014.4 |
| 20260901020428 | 59 | 229 | 6.0 | 9.0 | 0.00 | 0.00 | 0.00 | 79 | 1014.4 |
| 20260901015649 | 60 | 234 | 4.0 | 11.0 | 0.00 | 0.00 | 0.00 | 78 | 1014.3 |
| 20260901015145 | 60 | 227 | 6.0 | 10.0 | 0.00 | 0.00 | 0.00 | 77 | 1014.4 |
| 20260901014400 | 60 | 227 | 7.0 | 10.0 | 0.00 | 0.00 | 0.00 | 76 | 1014.4 |
| 20260901013858 | 60 | 234 | 5.0 | 14.0 | 0.00 | 0.00 | 0.00 | 76 | 1014.4 |
| 20260901013359 | 61 | 232 | 4.0 | 14.0 | 0.00 | 0.00 | 0.00 | 76 | 1014.4 |
| 20260901012858 | 61 | 256 | 5.0 | 9.0 | 0.00 | 0.00 | 0.00 | 76 | 1014.3 |
| 20260901012400 | 61 | 221 | 4.0 | 9.0 | 0.00 | 0.00 | 0.00 | 76 | 1014.3 |
| 20260901011858 | 61 | 229 | 5.0 | 9.0 | 0.00 | 0.00 | 0.00 | 76 | 1014.4 |
| 20260901011400 | 61 | 268 | 5.0 | 13.0 | 0.00 | 0.00 | 0.00 | 76 | 1014.3 |
| 20260901010857 | 61 | 227 | 6.0 | 13.0 | 0.00 | 0.00 | 0.00 | 76 | 1014.3 |
| 20260901010644 | 61 | 251 | 7.0 | 11.0 | 0.00 | 0.00 | 0.00 | 76 | 1014.4 |
| 20260901005857 | 61 | 225 | 6.0 | 11.0 | 0.00 | 0.00 | 0.00 | 76 | 1014.4 |
| 20260901005358 | 61 | 225 | 8.0 | 11.0 | 0.00 | 0.00 | 0.00 | 77 | 1014.3 |
| 20260901004857 | 61 | 251 | 6.0 | 13.0 | 0.00 | 0.00 | 0.00 | 77 | 1014.3 |
| 20260901004359 | 61 | 244 | 5.0 | 13.0 | 0.00 | 0.00 | 0.00 | 77 | 1014.3 |
| 20260901003857 | 61 | 268 | 6.0 | 10.0 | 0.00 | 0.00 | 0.00 | 77 | 1014.4 |
| 20260901003358 | 61 | 272 | 7.0 | 10.0 | 0.00 | 0.00 | 0.00 | 77 | 1014.3 |
| 20260901002858 | 61 | 244 | 3.0 | 10.0 | 0.00 | 0.00 | 0.00 | 77 | 1014.4 |
| 20260901002643 | 61 | 258 | 5.0 | 10.0 | 0.00 | 0.00 | 0.00 | 77 | 1014.3 |
| 20260901001857 | 61 | 275 | 5.0 | 9.0 | 0.00 | 0.00 | 0.00 | 78 | 1014.2 |
| 20260901001647 | 61 | 249 | 4.0 | 11.0 | 0.00 | 0.00 | 0.00 | 78 | 1014.2 |
| 20260901000856 | 61 | 245 | 6.0 | 11.0 | 0.00 | 0.00 | 0.00 | 78 | 1014.3 |
| 20260901000358 | 61 | 244 | 4.0 | 14.0 | 0.00 | 0.00 | 0.00 | 79 | 1014.2 |
| 20260901000141 | 61 | 229 | 6.0 | 14.0 | 0.00 | 0.00 | 0.00 | 79 | 1014.2 |
| 20260831235357 | 61 | 263 | 8.0 | 11.0 | 0.00 | 0.00 | 0.00 | 79 | 1014.2 |
| 20260831234856 | 62 | 242 | 3.0 | 9.0 | 0.00 | 0.00 | 0.00 | 79 | 1014.2 |
| 20260831234357 | 62 | 222 | 4.0 | 10.0 | 0.00 | 0.00 | 0.00 | 79 | 1014.2 |
| 20260831233857 | 62 | 229 | 6.0 | 10.0 | 0.00 | 0.00 | 0.00 | 79 | 1014.2 |
| 20260831233357 | 62 | 220 | 4.0 | 10.0 | 0.00 | 0.00 | 0.00 | 79 | 1014.0 |
| 20260831232856 | 61 | 231 | 8.0 | 10.0 | 0.00 | 0.00 | 0.00 | 79 | 1014.1 |
| 20260831232357 | 60 | 231 | 4.0 | 6.0 | 0.00 | 0.00 | 0.00 | 79 | 1014.1 |
| 20260831231856 | 60 | 275 | 2.0 | 4.0 | 0.00 | 0.00 | 0.00 | 79 | 1014.0 |
| 20260831231356 | 60 | 275 | 2.0 | 3.0 | 0.00 | 0.00 | 0.00 | 79 | 1013.9 |
| 20260831230855 | 60 | 275 | 2.0 | 3.0 | 0.00 | 0.00 | 0.00 | 78 | 1013.9 |
| 20260831230356 | 60 | 275 | 2.0 | 2.0 | 0.00 | 0.00 | 0.00 | 78 | 1013.8 |
| 20260831225855 | 60 | 275 | 1.0 | 2.0 | 0.00 | 0.00 | 0.00 | 78 | 1013.6 |
| 20260831225356 | 60 | 275 | 2.0 | 2.0 | 0.00 | 0.00 | 0.00 | 77 | 1013.7 |
| 20260831224854 | 60 | 275 | 1.0 | 2.0 | 0.00 | 0.00 | 0.00 | 77 | 1013.6 |
| 20260831224643 | 60 | 275 | 1.0 | 2.0 | 0.00 | 0.00 | 0.00 | 77 | 1013.6 |
| 20260831223855 | 60 | 275 | 1.0 | 2.0 | 0.00 | 0.00 | 0.00 | 77 | 1013.6 |
| 20260831223358 | 61 | 275 | 2.0 | 2.0 | 0.00 | 0.00 | 0.00 | 77 | 1013.6 |
| 20260831222855 | 61 | 275 | 2.0 | 3.0 | 0.00 | 0.00 | 0.00 | 77 | 1013.5 |
| 20260831222641 | 61 | 275 | 2.0 | 3.0 | 0.00 | 0.00 | 0.00 | 77 | 1013.5 |
| 20260831221854 | 62 | 275 | 2.0 | 3.0 | 0.00 | 0.00 | 0.00 | 77 | 1013.4 |
| 20260831221355 | 62 | 275 | 2.0 | 2.0 | 0.00 | 0.00 | 0.00 | 76 | 1013.3 |
| 20260831220853 | 62 | 275 | 2.0 | 3.0 | 0.00 | 0.00 | 0.00 | 76 | 1013.4 |
| 20260831220647 | 62 | 275 | 1.0 | 6.0 | 0.00 | 0.00 | 0.00 | 76 | 1013.4 |
| 20260831215854 | 63 | 275 | 3.0 | 6.0 | 0.00 | 0.00 | 0.00 | 76 | 1013.3 |
| 20260831215355 | 63 | 283 | 3.0 | 4.0 | 0.00 | 0.00 | 0.00 | 76 | 1013.4 |
| 20260831214855 | 63 | 283 | 2.0 | 5.0 | 0.00 | 0.00 | 0.00 | 76 | 1013.5 |
| 20260831214355 | 63 | 280 | 1.0 | 6.0 | 0.00 | 0.00 | 0.00 | 76 | 1013.5 |
| 20260831213853 | 64 | 301 | 3.0 | 9.0 | 0.00 | 0.00 | 0.00 | 76 | 1013.6 |
| 20260831213355 | 64 | 282 | 5.0 | 9.0 | 0.00 | 0.00 | 0.00 | 76 | 1013.7 |
| 20260831212853 | 64 | 270 | 4.0 | 9.0 | 0.00 | 0.00 | 0.00 | 76 | 1013.7 |
| 20260831212355 | 64 | 290 | 6.0 | 9.0 | 0.00 | 0.00 | 0.00 | 75 | 1013.6 |
| 20260831212145 | 64 | 282 | 5.0 | 9.0 | 0.00 | 0.00 | 0.00 | 75 | 1013.6 |
| 20260831211354 | 64 | 292 | 2.0 | 7.0 | 0.00 | 0.00 | 0.00 | 75 | 1013.5 |
| 20260831210852 | 64 | 290 | 3.0 | 12.0 | 0.00 | 0.00 | 0.00 | 75 | 1013.5 |
| 20260831210355 | 64 | 290 | 2.0 | 12.0 | 0.00 | 0.00 | 0.00 | 75 | 1013.2 |
| 20260831205853 | 64 | 286 | 4.0 | 6.0 | 0.00 | 0.00 | 0.00 | 75 | 1013.1 |
| 20260831205646 | 64 | 246 | 4.0 | 6.0 | 0.00 | 0.00 | 0.00 | 75 | 1012.9 |
| 20260831204852 | 64 | 244 | 3.0 | 6.0 | 0.00 | 0.00 | 0.00 | 74 | 1012.8 |
| 20260831204642 | 64 | 246 | 4.0 | 6.0 | 0.00 | 0.00 | 0.00 | 74 | 1012.8 |
| 20260831203852 | 64 | 235 | 4.0 | 6.0 | 0.00 | 0.00 | 0.00 | 74 | 1012.7 |
| 20260831203353 | 65 | 235 | 4.0 | 7.0 | 0.00 | 0.00 | 0.00 | 74 | 1012.7 |
| 20260831202852 | 65 | 239 | 3.0 | 7.0 | 0.00 | 0.00 | 0.00 | 74 | 1012.7 |
| 20260831202354 | 65 | 241 | 4.0 | 7.0 | 0.00 | 0.00 | 0.00 | 74 | 1012.8 |
| 20260831201850 | 65 | 241 | 4.0 | 6.0 | 0.00 | 0.00 | 0.00 | 73 | 1012.7 |
| 20260831201354 | 65 | 239 | 4.0 | 6.0 | 0.00 | 0.00 | 0.00 | 73 | 1012.6 |
| 20260831200852 | 65 | 238 | 4.0 | 6.0 | 0.00 | 0.00 | 0.00 | 73 | 1012.6 |
| 20260831200354 | 66 | 238 | 4.0 | 9.0 | 0.00 | 0.00 | 0.00 | 72 | 1012.5 |
| 20260831195853 | 66 | 244 | 4.0 | 9.0 | 0.00 | 0.00 | 0.00 | 72 | 1012.5 |
| 20260831195728 | 66 | 252 | 4.0 | 9.0 | 0.00 | 0.00 | 0.00 | 72 | 1012.3 |
| 20260831195431 | 66 | 242 | 5.0 | 7.0 | 0.00 | 0.00 | 0.00 | 72 | 1012.4 |
| 20260831194352 | 66 | 245 | 4.0 | 13.0 | 0.00 | 0.00 | 0.00 | 72 | 1012.3 |
| 20260831193941 | 65 | 221 | 5.0 | 9.0 | 0.00 | 0.00 | 0.00 | 73 | 1012.3 |
| 20260831193921 | 66 | 232 | 7.0 | 13.0 | 0.00 | 0.00 | 0.00 | 73 | 1012.4 |
| 20260831192851 | 65 | 235 | 5.0 | 10.0 | 0.00 | 0.00 | 0.00 | 75 | 1012.2 |
| 20260831192352 | 65 | 231 | 7.0 | 10.0 | 0.00 | 0.00 | 0.00 | 75 | 1012.3 |
| 20260831191850 | 64 | 255 | 5.0 | 6.0 | 0.00 | 0.00 | 0.00 | 75 | 1012.3 |
| 20260831191352 | 64 | 220 | 4.0 | 5.0 | 0.00 | 0.00 | 0.00 | 75 | 1012.2 |
| 20260831190850 | 64 | 218 | 5.0 | 6.0 | 0.00 | 0.00 | 0.00 | 75 | 1012.2 |
| 20260831190352 | 64 | 204 | 4.0 | 6.0 | 0.00 | 0.00 | 0.00 | 75 | 1012.1 |
| 20260831185850 | 64 | 206 | 4.0 | 5.0 | 0.00 | 0.00 | 0.00 | 75 | 1012.0 |
| 20260831185640 | 65 | 206 | 4.0 | 5.0 | 0.00 | 0.00 | 0.00 | 75 | 1012.1 |
| 20260831184850 | 65 | 204 | 4.0 | 5.0 | 0.00 | 0.00 | 0.00 | 75 | 1012.0 |
| 20260831184350 | 65 | 220 | 3.0 | 5.0 | 0.00 | 0.00 | 0.00 | 75 | 1012.0 |
| 20260831183850 | 65 | 220 | 2.0 | 3.0 | 0.00 | 0.00 | 0.00 | 74 | 1012.0 |
| 20260831183352 | 65 | 220 | 2.0 | 3.0 | 0.00 | 0.00 | 0.00 | 73 | 1011.9 |
| 20260831182851 | 66 | 220 | 2.0 | 4.0 | 0.00 | 0.00 | 0.00 | 73 | 1011.9 |
| 20260831182352 | 66 | 220 | 2.0 | 5.0 | 0.00 | 0.00 | 0.00 | 73 | 1011.9 |
| 20260831181852 | 66 | 220 | 3.0 | 5.0 | 0.00 | 0.00 | 0.00 | 73 | 1011.9 |
| 20260831181353 | 67 | 220 | 4.0 | 5.0 | 0.00 | 0.00 | 0.00 | 73 | 1011.9 |
| 20260831180849 | 67 | 220 | 3.0 | 5.0 | 0.00 | 0.00 | 0.00 | 72 | 1011.7 |
| 20260831180350 | 67 | 220 | 3.0 | 5.0 | 0.00 | 0.00 | 0.00 | 72 | 1011.8 |
| 20260831175849 | 68 | 220 | 4.0 | 5.0 | 0.00 | 0.00 | 0.00 | 71 | 1011.7 |
| 20260831175351 | 68 | 220 | 4.0 | 5.0 | 0.00 | 0.00 | 0.00 | 71 | 1011.8 |
| 20260831175134 | 69 | 224 | 3.0 | 5.0 | 0.00 | 0.00 | 0.00 | 71 | 1011.7 |
| 20260831174351 | 69 | 224 | 3.0 | 5.0 | 0.00 | 0.00 | 0.00 | 70 | 1011.7 |
| 20260831173850 | 70 | 225 | 3.0 | 5.0 | 0.00 | 0.00 | 0.00 | 69 | 1011.7 |
| 20260831173351 | 70 | 225 | 4.0 | 6.0 | 0.00 | 0.00 | 0.00 | 69 | 1011.6 |